LEMUR-2 JEFF

Last updated on Fri Jun 10 2016 09:36:46 GMT+0000 (Coordinated Universal Time)

1 41490U 98067JL 16162.20742468 .00028979 00000-0 40682-3 0 9995 2 41490 51.6467 92.6470 0001283 84.2172 68.0354 15.56479588 3529

Satellite not in orbit